Date String (YYYY-MM-DD hh:mm:ss) UTC,Instrument flags,absolute air pressure of the measurement (hPa),sample flow rate (lpm),inlet stack bypass flow (lpm),air temperature of the measurement (°C),ambient temperature measured by the external sensor (°C),aerosol sample conditioner tube jacket temperature (°C),OPC LED temperature (°C),internal box temperature (°C),relative humidity of the measurement (%),span deviation,mass concentration of particles derived from Lorenz-Mie calculation of OPC scattering (μg/m³),mass concentration of particles derived from Lorenz-Mie calculation of OPC scattering (μg/m³),mass concentration of particles derived from Lorenz-Mie calculation of OPC scattering (μg/m³)
DateTimeUTC,F1_M11,P_M11,Q1_M11,Q2_M11,T1_M11,T2_M11,T3_M11,T4_M11,T5_M11,U1_M11,ZSPAN_M11,X2_M11,X0_M11,X1_M11
2024-04-03 22:00:00,SystemResetWarning,0827.9,4.99,000.00,025.5,025.1,000.0,033.8,027.4,010.9,0000.0,0003.07,0007.55,0001.99
2024-04-03 22:01:00,SystemResetWarning,0827.9,5.00,000.00,025.6,025.1,000.0,033.8,027.5,010.5,0000.0,0003.06,0007.63,0001.97
2024-04-03 22:02:00,SystemResetWarning,0827.8,5.00,000.00,025.6,025.2,000.0,033.8,027.5,010.4,0000.0,0003.08,0008.18,0001.96
2024-04-03 22:03:00,SystemResetWarning,0827.9,5.00,000.00,025.7,025.2,000.0,033.9,027.6,010.7,0000.0,0003.04,0008.47,0001.93
2024-04-03 22:04:00,SystemResetWarning,0828.0,5.00,000.00,025.7,025.3,000.0,033.9,027.6,010.5,0000.0,0003.01,0008.65,0001.92
2024-04-03 22:05:00,SystemResetWarning,0828.0,5.00,000.00,025.8,025.3,000.0,033.9,027.6,010.7,0000.0,0003.00,0008.60,0001.92
2024-04-03 22:06:00,SystemResetWarning,0828.0,5.00,000.00,025.8,025.4,000.0,034.0,027.7,010.6,0000.0,0003.03,0008.67,0001.93
2024-04-03 22:07:00,SystemResetWarning,0828.0,5.00,000.00,025.7,024.4,000.0,034.0,027.1,011.0,0000.0,0003.11,0008.85,0001.92
2024-04-03 22:08:00,SystemResetWarning,0827.8,5.01,000.00,025.4,022.6,000.0,034.1,026.2,011.2,0000.0,0003.12,0008.87,0001.92
2024-04-03 22:09:00,SystemResetWarning,0827.8,5.01,000.00,025.1,022.6,000.0,034.0,026.1,011.3,0000.0,0003.11,0008.79,0001.91
2024-04-03 22:10:00,SystemResetWarning,0827.8,4.99,000.00,025.1,022.9,000.0,033.9,026.3,011.6,0000.0,0003.07,0008.63,0001.92
2024-04-03 22:11:00,SystemResetWarning,0828.0,4.99,000.00,025.1,023.2,000.0,033.8,026.5,011.4,0000.0,0003.09,0008.68,0001.92
2024-04-03 22:12:00,SystemResetWarning,0828.0,5.00,000.00,025.1,023.5,000.0,033.7,026.7,011.3,0000.0,0003.12,0008.55,0001.94
2024-04-03 22:13:00,SystemResetWarning,0827.9,5.01,000.00,025.1,023.8,000.0,033.7,026.8,011.2,0000.0,0003.12,0008.02,0001.95
2024-04-03 22:14:00,SystemResetWarning,0828.0,5.00,000.00,025.1,024.1,000.0,033.7,026.9,010.6,0000.0,0003.13,0007.69,0001.97
2024-04-03 22:15:00,SystemResetWarning,0827.9,5.00,000.00,025.2,024.3,000.0,033.7,027.0,010.7,0000.0,0003.16,0007.18,0001.99
2024-04-03 22:16:00,SystemResetWarning,0828.0,5.00,000.00,025.2,024.5,000.0,033.7,027.1,011.3,0000.0,0003.16,0007.11,0001.99
2024-04-03 22:17:00,SystemResetWarning,0828.0,5.01,000.00,025.3,024.6,000.0,033.7,027.1,010.7,0000.0,0003.13,0006.87,0001.97
2024-04-03 22:18:00,SystemResetWarning,0828.0,5.00,000.00,025.4,024.8,000.0,033.7,027.2,011.0,0000.0,0003.11,0006.71,0001.99
2024-04-03 22:19:00,SystemResetWarning,0828.0,4.99,000.00,025.4,024.9,000.0,033.7,027.3,010.3,0000.0,0003.12,0006.78,0002.01
2024-04-03 22:20:00,SystemResetWarning,0828.0,5.00,000.00,025.4,025.0,000.0,033.7,027.3,010.3,0000.0,0003.12,0006.95,0002.01
2024-04-03 22:21:00,SystemResetWarning,0828.0,5.00,000.00,025.5,025.0,000.0,033.7,027.4,010.0,0000.0,0003.11,0006.40,0001.99
2024-04-03 22:22:00,SystemResetWarning,0828.1,5.00,000.00,025.6,025.1,000.0,033.8,027.4,010.1,0000.0,0003.10,0005.78,0001.99
2024-04-03 22:23:00,SystemResetWarning,0828.1,5.00,000.00,025.6,025.2,000.0,033.8,027.5,010.4,0000.0,0003.08,0005.77,0001.97
2024-04-03 22:24:00,SystemResetWarning,0828.0,4.99,000.00,025.7,025.2,000.0,033.8,027.5,010.4,0000.0,0003.03,0006.70,0001.97
2024-04-03 22:25:00,SystemResetWarning,0828.1,4.99,000.00,025.7,025.3,000.0,033.9,027.6,010.4,0000.0,0003.06,0007.12,0001.96
2024-04-03 22:26:00,SystemResetWarning,0828.1,5.00,000.00,025.7,024.8,000.0,033.9,027.3,010.6,0000.0,0003.02,0006.97,0001.94
2024-04-03 22:27:00,SystemResetWarning,0827.8,5.01,000.00,025.4,022.8,000.0,034.0,026.3,010.5,0000.0,0002.97,0006.71,0001.95
2024-04-03 22:28:00,SystemResetWarning,0827.9,5.01,000.00,025.1,022.6,000.0,034.0,026.0,010.7,0000.0,0003.04,0006.85,0001.96
2024-04-03 22:29:00,SystemResetWarning,0827.9,5.01,000.00,025.0,022.8,000.0,033.8,026.2,011.0,0000.0,0003.06,0007.23,0001.97
2024-04-03 22:30:00,SystemResetWarning,0827.9,5.00,000.00,025.0,023.2,000.0,033.7,026.4,011.5,0000.0,0003.03,0007.59,0001.97
2024-04-03 22:31:00,SystemResetWarning,0827.9,5.00,000.00,025.0,023.5,000.0,033.7,026.6,011.1,0000.0,0003.03,0007.47,0001.97
2024-04-03 22:32:00,SystemResetWarning,0827.9,4.99,000.00,025.1,023.8,000.0,033.6,026.7,010.7,0000.0,0003.10,0007.59,0001.99
2024-04-03 22:33:00,SystemResetWarning,0827.9,5.00,000.00,025.1,024.0,000.0,033.6,026.8,010.9,0000.0,0003.10,0008.30,0002.01
2024-04-03 22:34:00,SystemResetWarning,0828.0,4.99,000.00,025.2,024.3,000.0,033.6,026.9,011.0,0000.0,0003.10,0009.00,0002.03
2024-04-03 22:35:00,SystemResetWarning,0827.9,5.00,000.00,025.2,024.4,000.0,033.6,027.0,010.7,0000.0,0003.08,0008.68,0002.02
2024-04-03 22:36:00,SystemResetWarning,0827.9,5.00,000.00,025.3,024.6,000.0,033.6,027.1,010.6,0000.0,0003.10,0008.42,0002.02
2024-04-03 22:37:00,SystemResetWarning,0827.8,5.00,000.00,025.3,024.7,000.0,033.6,027.2,010.5,0000.0,0003.10,0008.37,0002.02
2024-04-03 22:38:00,SystemResetWarning,0828.1,5.00,000.00,025.4,024.8,000.0,033.6,027.2,010.3,0000.0,0003.11,0008.70,0002.03
2024-04-03 22:39:00,SystemResetWarning,0827.8,5.00,000.00,025.4,024.9,000.0,033.7,027.3,010.8,0000.0,0003.06,0009.34,0002.02
2024-04-03 22:40:00,SystemResetWarning,0827.8,4.99,000.00,025.5,025.0,000.0,033.7,027.4,010.9,0000.0,0002.98,0009.06,0002.00
2024-04-03 22:41:00,SystemResetWarning,0827.9,4.99,000.00,025.5,025.1,000.0,033.7,027.4,010.7,0000.0,0002.98,0008.74,0001.97
2024-04-03 22:42:00,SystemResetWarning,0827.8,5.00,000.00,025.6,025.1,000.0,033.7,027.5,010.5,0000.0,0002.99,0008.77,0001.97
2024-04-03 22:43:00,SystemResetWarning,0827.8,5.00,000.00,025.6,025.2,000.0,033.8,027.5,010.5,0000.0,0002.98,0008.77,0001.96
2024-04-03 22:44:00,SystemResetWarning,0827.8,5.00,000.00,025.7,025.3,000.0,033.8,027.6,010.4,0000.0,0003.01,0008.19,0001.95
2024-04-03 22:45:00,SystemResetWarning,0827.9,5.01,000.00,025.7,025.0,000.0,033.9,027.4,010.3,0000.0,0003.03,0007.48,0001.94
2024-04-03 22:46:00,SystemResetWarning,0827.8,4.99,000.00,025.4,023.0,000.0,033.9,026.4,010.5,0000.0,0003.09,0007.45,0001.95
2024-04-03 22:47:00,SystemResetWarning,0827.8,5.02,000.00,025.1,022.4,000.0,033.9,026.0,010.8,0000.0,0003.03,0007.34,0001.93
2024-04-03 22:48:00,SystemResetWarning,0827.8,5.00,000.00,025.0,022.7,000.0,033.8,026.2,010.8,0000.0,0003.01,0007.35,0001.93
2024-04-03 22:49:00,SystemResetWarning,0827.9,4.99,000.00,025.0,023.0,000.0,033.7,026.4,010.9,0000.0,0003.00,0006.85,0001.94
2024-04-03 22:50:00,SystemResetWarning,0827.8,5.00,000.00,025.0,023.4,000.0,033.7,026.6,010.7,0000.0,0002.99,0005.56,0001.95
2024-04-03 22:51:00,SystemResetWarning,0827.8,5.00,000.00,025.1,023.7,000.0,033.6,026.7,010.8,0000.0,0003.04,0005.61,0001.97
2024-04-03 22:52:00,SystemResetWarning,0827.8,5.01,000.00,025.1,024.0,000.0,033.6,026.8,010.8,0000.0,0003.05,0005.51,0001.98
2024-04-03 22:53:00,SystemResetWarning,0827.8,5.01,000.00,025.1,024.2,000.0,033.6,026.9,010.8,0000.0,0003.07,0005.52,0002.00
2024-04-03 22:54:00,SystemResetWarning,0827.9,5.00,000.00,025.2,024.4,000.0,033.6,027.0,010.3,0000.0,0003.06,0005.61,0002.01
2024-04-03 22:55:00,SystemResetWarning,0827.8,5.00,000.00,025.3,024.6,000.0,033.6,027.1,010.3,0000.0,0003.01,0005.61,0002.00
2024-04-03 22:56:00,SystemResetWarning,0827.8,5.00,000.00,025.3,024.7,000.0,033.6,027.2,010.2,0000.0,0002.99,0005.50,0001.99
2024-04-03 22:57:00,SystemResetWarning,0827.8,4.99,000.00,025.4,024.8,000.0,033.6,027.2,010.3,0000.0,0002.94,0005.37,0001.99
2024-04-03 22:58:00,SystemResetWarning,0827.8,4.99,000.00,025.4,024.9,000.0,033.6,027.3,010.4,0000.0,0002.99,0005.51,0001.99
2024-04-03 22:59:00,SystemResetWarning,0827.8,5.00,000.00,025.5,025.0,000.0,033.7,027.4,010.5,0000.0,0003.03,0005.49,0001.99
